Regional Weather Roundup
Issued by NWS

Home | Current Version | Previous Version | Text Only | Print | Product List | Glossary On
Versions: 1 2 3 4 5 6 7 8 9 10 11 12 13 14 15 16 17 18 19 20 21 22 23 24 25 26 27
000
ASUS45 KBOU 022207
RWRCO

WEATHER ROUNDUP FOR COLORADO
NATIONAL WEATHER SERVICE DENVER/BOULDER CO
400 PM MDT MON MAY 02 2016

NOTE: "FAIR" INDICATES FEW OR NO CLOUDS BELOW 12000 FEET WITH NO
SIGNIFICANT WEATHER AND/OR OBSTRUCTIONS TO VISIBILITY.

COZ001>005-013-030-031-022300-
...NORTHWEST COLORADO...

CITY           SKY/WX    TMP DP  RH WIND       PRES   REMARKS
CRAIG          FAIR      60  25  26 W10G18    30.19F
HAYDEN         FAIR      55  25  30 W12       30.19F
MEEKER         PTSUNNY   59  24  26 W7        30.18F
MOUNT WERNER   NOT AVBL
STEAMBOAT SPGS FAIR      55  25  31 SW9G16    30.18F
WALDEN         FAIR      52  23  32 NW13G21   30.21F
$$

COZ006>008-011-022300-
...WEST CENTRAL VALLEYS...

CITY           SKY/WX    TMP DP  RH WIND       PRES   REMARKS
GRAND JUNCTION FAIR      63  31  30 N6        30.13F
MONTROSE       FAIR      60  28  29 CALM      30.17F
EAGLE          MOSUNNY   61  21  21 SW9       30.15F
RIFLE          PTSUNNY   62  28  27 SW5       30.13F
DELTA          NOT AVBL
NUCLA          NOT AVBL
$$

COZ017>023-064>068-022300-
...SOUTHWEST COLORADO...

CITY           SKY/WX    TMP DP  RH WIND       PRES   REMARKS
DURANGO        FAIR      54  31  41 W8        30.18F
CORTEZ         FAIR      59  35  40 SW14      30.18F
PAGOSA SPRINGS PTSUNNY   53  32  45 W6        30.20F
TELLURIDE      LGT RAIN  44  30  58 CALM      30.26F
WOLF CREEK PAS PTSUNNY   30  30 100 SW9       30.34F WCI  22
$$

COZ009-010-012-014-032>034-037-058>063-022300-
...CENTRAL COLORADO...

CITY           SKY/WX    TMP DP  RH WIND       PRES   REMARKS
ASPEN          PTSUNNY   56  21  25 NW9       30.17F
BUENA VISTA    FAIR      54  20  26 SE5       30.15F
COPPER MTN     NOT AVBL
BERTHOUD PASS  FAIR      21  12  68 NW22      30.31F WCI   5
COTTONWOOD PAS FAIR      50  23  34 CALM      30.23F
GUNNISON       FAIR      54  25  32 W15G21    30.20F
KREMMLING      FAIR      55  16  21 N10G21    30.19F
LEADVILLE      PTSUNNY   42  16  34 N10       30.22F
MONARCH PASS   PTSUNNY   28  27  93 MISG      30.41F
SALIDA         FAIR      59  21  23 N6        30.22F
SUNLIGHT       PTSUNNY   37  28  70 CALM      30.34F
WILKERSON PASS FAIR      37  23  56 W3        30.31S
$$

COZ069>075-022300-
...SAN LUIS VALLEY/SANGRE DE CRISTO MOUNTAINS...

CITY           SKY/WX    TMP DP  RH WIND       PRES   REMARKS
ALAMOSA        CLOUDY    53  28  38 VRB3      30.17F
LA VETA PASS   FAIR      39  32  75 CALM      30.27S
SAGUACHE       FAIR      55  27  33 S10       30.17F
$$

COZ035-036-038>040-022300-
...NORTHERN COLORADO FRONT RANGE...

CITY           SKY/WX    TMP DP  RH WIND       PRES   REMARKS
DENVER INTL AP FAIR      58  23  26 N9        30.12F
DMNS CITY PARK   N/A     59  22  23 N12G25    30.12F
AURORA         FAIR      57  27  31 VRB3      30.14F
FRONT RANGE AP NOT AVBL
ERIE MUNI ARPT FAIR      59  25  26 CALM      30.12F
BOULDER MUN AP FAIR      59  28  31 E5        30.12F
CENTENNIAL     FAIR      54  21  27 CALM      30.13F
BROOMFIELD     MOSUNNY   59  25  27 W3        30.13F
FORT COLLINS   FAIR      59  28  31 W5        30.11F
LONGMONT       FAIR      62  26  25 S6        30.13F
$$

COZ041-046-047-076>085-087-088-022300-
...PIKES PEAK/PALMER DIVIDE AND SOUTHERN FOOTHILLS...

CITY           SKY/WX    TMP DP  RH WIND       PRES   REMARKS
COLO. SPRINGS  FAIR      59   4  11 E8        30.16F
A. F. ACADEMY  FAIR      54  10  17 N3        30.15F
SCHRIEVER AFB  NOT AVBL
ELLICOTT       FAIR     N/A N/A N/A NW12      30.15F
FALCON         FAIR      55   2  11 CALM      30.18F
FORT CARSON    FAIR      57  29  34 SE9       30.13F
LIMON          FAIR      49  26  41 W6        30.15F
MONUMENT HILL  FAIR      46  18  31 E3        30.19F
TRINIDAD       FAIR      58  34  40 N9        30.15F
$$

COZ042>045-048>051-090-091-022300-
...NORTHEAST COLORADO...

CITY           SKY/WX    TMP DP  RH WIND       PRES   REMARKS
GREELEY ARPT   FAIR      61  28  29 W7        30.11F
AKRON          FAIR      57  23  26 W13       30.11F
BURLINGTON     FAIR      60  22  23 NW10      30.12F
WRAY           NOT AVBL
STERLING       FAIR      63  28  27 N9G16     30.07F
HOLYOKE        NOT AVBL
FORT MORGAN    FAIR      60  20  21 S5        30.11F
$$

COZ086-089-092>099-022300-
...SOUTHEAST COLORADO...

CITY           SKY/WX    TMP DP  RH WIND       PRES   REMARKS
PUEBLO         FAIR      60  29  30 VRB3      30.12F
LA JUNTA       FAIR      61  29  29 N7        30.13F
LAMAR          FAIR      63  29  27 NW5       30.10F
SPRINGFIELD      N/A     57  33  40 NW10      30.13F
$$




USA.gov is the U.S. government's official web portal to all federal, state and local government web resources and services.